Location: Cheyres
(46.8153°N, 6.7877°E)
Time: 12:13:32
(UTC+00:00)

Cosmos 1328 Rocket - Pass Details

Date: 24 September 2021
Orbit: 601 x 627 km, 82.5° (Epoch: 18 October)

Event Time Altitude Azimuth Distance (km) Brightness Sun altitude
Exits shadow 02:51:25 51° 127° (SE) 769 4.1 -25.6°
Maximum altitude 02:51:59 56° 95° (E) 728 4.1 -25.5°
Drops below altitude 10° 02:56:13 10° 17° (NNE) 1,961 6.7 -24.8°
Sets 02:58:28 0° 14° (NNE) 2,867 7.6 -24.5°
